DateTimeUTC,F1_A11,F1_S11,BsB_S11,BsG_S11,BsR_S11,BbsB_S11,BbsG_S11,BbsR_S11,BaB_A11,BaG_A11,BaR_A11,Tu_S11,T_S11,Uu_S11,U_S11,P_S11,T1_A11
2021-07-24T17:00:00Z,00000200,20000000,,,,,,,-000.05,-000.23,-000.05,19.8,26.2,09.3,06.3,0666.0,31.2
2021-07-24T17:01:00Z,00000200,20000000,,,,,,,-000.21,0000.04,0000.21,19.8,26.2,09.3,06.3,0666.0,31.2
2021-07-24T17:02:00Z,00000200,20000000,,,,,,,0000.10,-000.18,-000.30,19.8,26.2,09.3,06.3,0666.0,31.2
2021-07-24T17:03:00Z,00000200,60000000,,,,,,,-000.04,0000.06,0000.35,19.8,26.3,09.0,06.1,0666.0,31.2
2021-07-24T17:04:00Z,00000200,40000000,0001.10,0000.40,0000.54,0000.08,-000.20,0000.33,-000.18,-000.31,-000.44,19.9,26.1,09.0,06.2,0666.9,31.2
2021-07-24T17:05:00Z,00000200,00000000,-000.06,0000.56,0000.03,0000.56,0000.29,0000.07,0000.03,0000.34,0000.25,19.9,26.1,08.9,06.1,0667.0,31.2
2021-07-24T17:06:00Z,00000200,00000000,0001.29,0000.02,-000.14,0000.36,0000.17,0000.10,0000.22,-000.33,0000.15,19.9,26.1,08.8,06.1,0667.0,31.2
2021-07-24T17:07:00Z,00000200,00000000,0000.37,0000.51,-000.02,-000.13,0000.22,-000.06,0000.16,0000.31,0000.02,19.9,26.0,09.0,06.2,0667.0,31.2
2021-07-24T17:08:00Z,00000200,00000000,0000.48,0000.45,0000.24,-000.38,0000.09,0000.10,0000.30,0000.45,-000.01,19.9,26.0,09.1,06.3,0667.0,31.2
2021-07-24T17:09:00Z,00000200,00000000,0000.77,0000.45,0000.05,0000.31,0000.05,-000.20,-000.14,-000.30,0000.40,19.9,26.0,09.3,06.4,0667.0,31.2
2021-07-24T17:10:00Z,00000200,00000000,0000.12,0000.44,0000.15,-000.15,0000.25,0000.03,-000.14,0000.33,-000.30,19.9,26.0,09.3,06.4,0667.0,31.2
2021-07-24T17:11:00Z,00000200,00000000,0000.25,0000.58,0000.07,0000.45,0000.45,0000.02,0000.52,0000.37,0000.55,19.9,26.0,09.0,06.2,0667.0,31.2
2021-07-24T17:12:00Z,00000200,00000000,0000.99,0000.57,-000.09,0000.22,0000.09,0000.06,-000.22,-000.37,-000.32,19.9,26.0,09.1,06.3,0667.0,31.2
2021-07-24T17:13:00Z,00000200,00000000,0000.44,0000.09,0000.39,-000.11,0000.12,0000.26,0000.09,0000.51,0000.39,19.9,26.0,08.9,06.1,0667.0,31.2
2021-07-24T17:14:00Z,00000200,00000000,0000.66,0000.54,0000.04,0000.59,0000.28,0000.10,0000.46,-000.01,-000.28,19.9,26.0,08.9,06.1,0667.1,31.2
2021-07-24T17:15:00Z,00000200,00000000,0000.74,0000.40,0000.34,0000.51,-000.23,0000.03,-000.23,-000.30,0000.13,19.9,26.0,09.1,06.3,0667.1,31.2
2021-07-24T17:16:00Z,00000200,00000000,0000.96,0000.35,0000.13,0000.79,-000.05,0000.06,0000.58,0000.51,0000.24,19.9,26.0,09.1,06.3,0667.1,31.2
2021-07-24T17:17:00Z,00000200,00000000,0000.77,0000.31,0000.14,0000.81,0000.09,0000.09,-000.39,-000.33,-000.11,19.9,26.1,09.1,06.3,0667.1,31.2
2021-07-24T17:18:00Z,00000200,00000000,0001.22,0000.46,0000.29,0000.30,0000.22,-000.03,-000.04,0000.11,0000.15,19.9,26.0,08.8,06.1,0667.1,31.2
2021-07-24T17:19:00Z,00000200,00000000,0000.62,0000.44,0000.19,0000.21,-000.03,0000.25,-000.02,-000.06,-000.20,19.9,26.0,08.9,06.1,0667.1,31.2
2021-07-24T17:20:00Z,00000200,00000000,0000.40,0000.45,-000.18,-000.18,0000.29,-000.12,0000.56,0000.63,0000.21,19.9,26.0,08.8,06.1,0667.2,31.2
2021-07-24T17:21:00Z,00000200,00000000,0000.71,0000.55,0000.26,0000.28,0000.36,-000.30,0000.18,-000.04,0000.22,19.9,26.0,09.0,06.2,0667.1,31.2
2021-07-24T17:22:00Z,00000200,00000000,0000.65,0000.03,0000.14,-000.09,-000.02,0000.14,0000.19,-000.01,0000.26,20.0,26.0,09.0,06.2,0667.2,31.2
2021-07-24T17:23:00Z,00000200,00000000,0000.62,0000.22,0000.05,0000.34,0000.25,0000.07,0000.41,0000.17,0000.37,19.9,26.0,09.2,06.4,0667.2,31.2
2021-07-24T17:24:00Z,00000200,00000000,0000.96,0000.27,-000.01,-000.17,-000.07,-000.03,-000.46,0000.22,-000.15,19.9,26.0,09.4,06.5,0667.2,31.2
2021-07-24T17:25:00Z,00000200,00000000,0000.41,0000.30,0000.26,0000.55,0000.14,0000.52,0000.40,0000.10,0000.00,19.9,26.0,09.2,06.3,0667.1,31.2
2021-07-24T17:26:00Z,00000200,00000000,0000.44,0000.63,0000.15,0000.47,-000.02,0000.20,0000.30,0000.62,0000.20,19.9,26.0,09.2,06.4,0667.2,31.2
2021-07-24T17:27:00Z,00000200,00000000,0000.22,0000.50,0000.41,-000.00,0000.04,-000.18,-000.32,-000.52,-000.18,19.9,26.0,09.1,06.3,0667.1,31.2
2021-07-24T17:28:00Z,00000200,00000000,0000.03,0000.30,0000.24,0000.14,-000.14,0000.21,0000.10,0000.44,0000.33,19.9,26.0,09.0,06.2,0667.1,31.2
2021-07-24T17:29:00Z,00000200,00000000,0000.32,0000.59,0000.17,0000.53,0000.19,0000.02,0000.47,0000.16,0000.40,19.9,26.0,09.3,06.4,0667.2,31.2
2021-07-24T17:30:00Z,00000200,00000000,0000.52,0000.21,0000.01,0000.15,-000.12,-000.04,0000.70,0000.47,0000.31,19.9,26.0,09.4,06.5,0667.2,31.2
2021-07-24T17:31:00Z,00000200,00000000,0000.56,0000.26,0000.12,0000.02,0000.10,0000.32,-000.04,0000.04,-000.06,19.9,26.0,09.5,06.6,0667.2,31.2
2021-07-24T17:32:00Z,00000200,00000000,0001.03,0000.38,0000.13,0000.52,-000.10,-000.08,-000.10,0000.14,0000.07,19.9,26.0,09.6,06.7,0667.2,31.2
2021-07-24T17:33:00Z,00000200,00000000,0000.78,0000.06,-000.27,-000.17,-000.16,-000.04,0000.29,-000.04,0000.20,19.9,26.0,09.4,06.5,0667.2,31.2
2021-07-24T17:34:00Z,00000200,00000000,0001.18,0000.49,0000.05,0000.03,-000.01,0000.21,-000.19,-000.18,-000.13,19.9,26.0,09.5,06.6,0667.1,31.2
2021-07-24T17:35:00Z,00000200,00000000,0000.77,0000.32,0000.08,0000.58,-000.11,-000.17,-000.10,0000.10,-000.25,19.9,26.0,09.2,06.4,0667.1,31.2
2021-07-24T17:36:00Z,00000200,00000000,0001.15,0000.33,0000.26,0000.94,-000.01,-000.32,-000.03,-000.24,-000.10,19.9,26.0,09.1,06.3,0667.1,31.2
2021-07-24T17:37:00Z,00000200,00000000,0000.85,0000.45,-000.03,0000.34,0000.24,0000.08,-000.12,0000.09,0000.11,19.9,26.0,09.0,06.3,0667.1,31.2
2021-07-24T17:38:00Z,00000200,00000000,0000.44,0000.29,0000.24,0000.24,0000.19,-000.03,0000.03,0000.03,-000.14,19.9,26.0,09.0,06.2,0667.1,31.2
2021-07-24T17:39:00Z,00000200,00000000,0000.86,0000.32,-000.04,-000.00,0000.24,0000.03,0000.16,0000.25,-000.03,19.9,26.0,09.0,06.3,0667.1,31.2
2021-07-24T17:40:00Z,00000200,00000000,0000.47,0000.34,0000.18,0000.13,0000.35,0000.09,0000.08,-000.01,0000.83,19.9,26.0,09.0,06.2,0667.1,31.2
2021-07-24T17:41:00Z,00000200,00000000,0000.29,0000.08,0000.27,0000.26,0000.09,0000.02,0000.37,0000.32,-000.11,19.9,26.0,09.1,06.3,0667.2,31.2
2021-07-24T17:42:00Z,00000200,00000000,0000.61,0000.16,-000.12,0000.35,0000.10,0000.03,0000.24,0000.06,-000.20,19.9,26.0,09.2,06.4,0667.1,31.2
2021-07-24T17:43:00Z,00000200,00000000,0001.69,0000.53,0000.12,0000.13,0000.09,0000.14,-000.14,0000.26,0000.47,19.9,26.0,09.0,06.2,0667.2,31.1
2021-07-24T17:44:00Z,00000200,00000000,0000.67,0000.45,0000.44,0000.05,0000.14,0000.37,-000.16,-000.47,-000.45,19.9,26.0,09.0,06.2,0667.1,31.2
2021-07-24T17:45:00Z,00000200,00000000,0000.41,0000.46,0000.17,0000.06,0000.04,0000.21,0000.26,0000.17,0000.15,19.9,26.0,08.8,06.1,0667.2,31.1
2021-07-24T17:46:00Z,00000200,00000000,0001.26,0000.21,0000.18,0000.26,0000.20,-000.01,-000.02,0000.27,-000.19,19.9,26.0,09.0,06.2,0667.1,31.2
2021-07-24T17:47:00Z,00000200,00000000,0000.29,0000.41,0000.18,0000.51,0000.07,0000.03,0000.01,0000.11,0000.31,19.9,26.0,09.0,06.2,0667.2,31.2
2021-07-24T17:48:00Z,00000200,00000000,0000.56,0000.58,0000.29,-000.32,0000.35,-000.03,0000.01,-000.37,0000.03,19.9,26.0,09.0,06.2,0667.2,31.2
2021-07-24T17:49:00Z,00000200,00000000,0001.28,0000.68,0000.05,-000.02,0000.29,0000.02,0000.56,0000.48,0000.09,19.9,26.0,08.9,06.2,0667.2,31.2
2021-07-24T17:50:00Z,00000200,00000000,0000.78,0000.54,0000.06,0000.55,0000.11,0000.05,-000.24,0000.22,0000.24,19.9,26.0,09.0,06.2,0667.2,31.1
2021-07-24T17:51:00Z,00000200,00000000,0001.38,0000.18,-000.10,0000.13,0000.08,-000.12,0000.49,0000.03,0000.36,19.9,26.0,09.0,06.2,0667.2,31.2
2021-07-24T17:52:00Z,00000200,00000000,0000.65,0000.26,0000.15,0000.50,0000.27,-000.11,0000.15,0000.24,0000.06,19.9,26.0,09.0,06.2,0667.2,31.2
2021-07-24T17:53:00Z,00000200,00000000,0000.76,0000.30,0000.39,-000.43,0000.28,-000.10,0000.16,-000.01,-000.11,19.9,26.0,09.1,06.3,0667.2,31.2
2021-07-24T17:54:00Z,00000200,00000000,0000.39,0000.39,0000.02,-000.08,-000.05,0000.37,0000.19,0000.23,0000.07,19.9,26.0,09.2,06.4,0667.2,31.2
2021-07-24T17:55:00Z,00000200,00000000,-000.01,0000.66,0000.11,0000.16,0000.19,0000.01,-000.21,-000.25,0000.11,19.9,26.0,09.1,06.3,0667.2,31.2
2021-07-24T17:56:00Z,00000200,00000000,0000.43,0000.28,0000.22,0000.34,0000.07,0000.19,0000.43,0000.08,0000.37,19.9,26.0,09.2,06.4,0667.2,31.2
2021-07-24T17:57:00Z,00000200,40000000,,,,,,,0000.12,0000.45,0000.09,19.9,26.0,09.4,06.5,0667.2,31.2
2021-07-24T17:58:00Z,00000200,60000000,,,,,,,-000.16,-000.09,-000.07,19.7,26.1,09.3,06.3,0666.3,31.1
2021-07-24T17:59:00Z,00000200,20000000,,,,,,,0000.20,-000.24,-000.18,19.7,26.2,09.3,06.3,0666.3,31.2
